User: anonymous   Login
Location: Hopkins Observatory
(42.6965°N, 73.1843°W)
Time: 05:37:42
(UTC-05:00)
Language:

RS-15 - Orbit

View from above orbital plane
View from above orbital plane
View from above satellite
View from above satellite

Ground track
Ground track

The orbit data is extracted from the following two-line orbital elements,

1 23439U 94085A   14351.19206952 -.00000033  00000-0  28060-3 0  7494
2 23439 064.8172 255.7868 0147958 046.8806 314.4385 11.27562064822631
Epoch (UTC): 17 December 2014 04:36:34
Eccentricity: 0.0147958
inclination: 64.8172°
perigee height: 1898 km
apogee height: 2147 km
right ascension of ascending node: 255.7868°
argument of perigee: 46.8806°
revolutions per day: 11.27562064
mean anomaly at epoch: 314.4385°
orbit number at epoch: 82263

The dashed part of the orbit path shows where the satellite is in the earth's shadow,  

DLR